Time,TemperatureF,DewpointF,PressureIn,WindDirection,WindDirectionDegrees,WindSpeedMPH,WindSpeedGustMPH,Humidity,HourlyPrecipIn,Conditions,Clouds,dailyrainin,SoftwareType,DateUTC
2013-10-08 00:05:00,75.7,75.1,29.64,NW,315,0.0,-999.0,98,-99.99,,,0.00,Acu-Link.com,2013-10-08 04:05:00,
2013-10-08 00:20:00,75.7,75.1,29.64,South,180,0.0,-999.0,98,-99.99,,,0.00,Acu-Link.com,2013-10-08 04:20:00,
2013-10-08 00:35:00,75.7,75.1,29.64,NW,315,0.0,-999.0,98,-99.99,,,0.00,Acu-Link.com,2013-10-08 04:35:00,
2013-10-08 00:51:00,75.6,75.0,29.63,WNW,292,0.0,-999.0,98,-99.99,,,0.00,Acu-Link.com,2013-10-08 04:51:00,
2013-10-08 01:06:00,75.6,75.0,29.63,South,180,0.0,-999.0,98,-99.99,,,0.00,Acu-Link.com,2013-10-08 05:06:00,
2013-10-08 01:21:00,75.6,75.0,29.62,NW,315,0.0,-999.0,98,-99.99,,,0.00,Acu-Link.com,2013-10-08 05:21:00,
2013-10-08 01:36:00,75.6,75.0,29.62,WNW,292,0.0,-999.0,98,-99.99,,,0.00,Acu-Link.com,2013-10-08 05:36:00,
2013-10-08 01:52:00,75.6,75.0,29.62,WNW,292,0.0,-999.0,98,-99.99,,,0.00,Acu-Link.com,2013-10-08 05:52:00,
2013-10-08 02:07:00,75.7,75.1,29.62,NNW,337,0.0,-999.0,98,-99.99,,,0.00,Acu-Link.com,2013-10-08 06:07:00,
2013-10-08 02:22:00,75.7,75.1,29.63,SW,225,0.0,-999.0,98,-99.99,,,0.00,Acu-Link.com,2013-10-08 06:22:00,
2013-10-08 02:37:00,75.7,75.1,29.62,WNW,292,0.0,-999.0,98,-99.99,,,0.00,Acu-Link.com,2013-10-08 06:37:00,
2013-10-08 02:53:00,75.6,75.0,29.62,NW,315,0.0,-999.0,98,-99.99,,,0.00,Acu-Link.com,2013-10-08 06:53:00,
2013-10-08 03:08:00,75.6,75.0,29.62,WNW,292,0.0,-999.0,98,-99.99,,,0.00,Acu-Link.com,2013-10-08 07:08:00,
2013-10-08 03:24:00,75.6,75.0,29.62,NW,315,0.0,-999.0,98,-99.99,,,0.00,Acu-Link.com,2013-10-08 07:24:00,
2013-10-08 03:39:00,75.6,75.0,29.62,NE,45,0.0,-999.0,98,-99.99,,,0.00,Acu-Link.com,2013-10-08 07:39:00,
2013-10-08 03:54:00,75.4,74.8,29.62,North,0,0.0,-999.0,98,-99.99,,,0.00,Acu-Link.com,2013-10-08 07:54:00,
2013-10-08 04:10:00,75.2,74.6,29.63,NW,315,0.0,-999.0,98,-99.99,,,0.00,Acu-Link.com,2013-10-08 08:10:00,
2013-10-08 04:25:00,75.2,74.6,29.62,NNW,337,0.0,-999.0,98,-99.99,,,0.00,Acu-Link.com,2013-10-08 08:25:00,
2013-10-08 04:40:00,75.0,74.4,29.63,NNW,337,0.0,-999.0,98,-99.99,,,0.00,Acu-Link.com,2013-10-08 08:40:00,
2013-10-08 04:56:00,75.0,74.4,29.63,NW,315,0.0,-999.0,98,-99.99,,,0.00,Acu-Link.com,2013-10-08 08:56:00,
2013-10-08 05:11:00,75.0,74.4,29.63,NNW,337,0.0,-999.0,98,-99.99,,,0.00,Acu-Link.com,2013-10-08 09:11:00,
2013-10-08 05:26:00,75.0,74.4,29.63,WNW,292,0.0,-999.0,98,-99.99,,,0.00,Acu-Link.com,2013-10-08 09:26:00,
2013-10-08 05:41:00,74.8,74.2,29.64,NNW,337,0.0,-999.0,98,-99.99,,,0.00,Acu-Link.com,2013-10-08 09:41:00,
2013-10-08 05:56:00,74.8,74.2,29.64,WSW,247,0.0,-999.0,98,-99.99,,,0.00,Acu-Link.com,2013-10-08 09:56:00,
2013-10-08 06:12:00,74.8,74.2,29.65,NNW,337,0.0,-999.0,98,-99.99,,,0.00,Acu-Link.com,2013-10-08 10:12:00,
2013-10-08 06:27:00,74.8,74.2,29.65,ESE,112,0.0,-999.0,98,-99.99,,,0.00,Acu-Link.com,2013-10-08 10:27:00,
2013-10-08 06:42:00,75.0,74.4,29.66,ESE,112,0.0,-999.0,98,-99.99,,,0.00,Acu-Link.com,2013-10-08 10:42:00,
2013-10-08 06:58:00,75.4,74.8,29.66,West,270,0.0,-999.0,98,-99.99,,,0.00,Acu-Link.com,2013-10-08 10:58:00,
2013-10-08 07:13:00,75.2,74.6,29.66,WNW,292,0.0,-999.0,98,-99.99,,,0.00,Acu-Link.com,2013-10-08 11:13:00,
2013-10-08 07:28:00,75.2,74.6,29.67,NNE,22,0.0,-999.0,98,-99.99,,,0.00,Acu-Link.com,2013-10-08 11:28:00,
2013-10-08 07:44:00,75.0,74.4,29.67,ESE,112,0.0,-999.0,98,-99.99,,,0.00,Acu-Link.com,2013-10-08 11:44:00,
2013-10-08 07:59:00,75.6,75.0,29.68,NNE,22,0.0,-999.0,98,-99.99,,,0.00,Acu-Link.com,2013-10-08 11:59:00,
2013-10-08 08:14:00,76.5,75.9,29.68,NNE,22,0.0,-999.0,98,-99.99,,,0.00,Acu-Link.com,2013-10-08 12:14:00,
2013-10-08 08:29:00,77.5,76.9,29.69,WNW,292,0.0,-999.0,98,-99.99,,,0.00,Acu-Link.com,2013-10-08 12:29:00,
2013-10-08 08:45:00,78.6,78.0,29.69,WNW,292,0.0,-999.0,98,-99.99,,,0.00,Acu-Link.com,2013-10-08 12:45:00,
2013-10-08 09:00:00,80.1,79.5,29.70,NNE,22,0.0,-999.0,98,-99.99,,,0.00,Acu-Link.com,2013-10-08 13:00:00,
2013-10-08 09:15:00,80.1,79.5,29.70,NNE,22,0.0,-999.0,98,-99.99,,,0.00,Acu-Link.com,2013-10-08 13:15:00,
2013-10-08 09:31:00,81.1,80.5,29.70,NNW,337,2.2,-999.0,98,-99.99,,,0.00,Acu-Link.com,2013-10-08 13:31:00,
2013-10-08 09:46:00,81.1,80.5,29.71,SSW,202,2.2,-999.0,98,-99.99,,,0.00,Acu-Link.com,2013-10-08 13:46:00,
2013-10-08 10:01:00,81.7,81.1,29.71,NNW,337,0.0,-999.0,98,-99.99,,,0.00,Acu-Link.com,2013-10-08 14:01:00,
2013-10-08 10:17:00,82.9,82.3,29.70,East,90,3.2,-999.0,98,-99.99,,,0.00,Acu-Link.com,2013-10-08 14:17:00,
2013-10-08 10:32:00,84.6,84.0,29.71,NW,315,3.2,-999.0,98,-99.99,,,0.00,Acu-Link.com,2013-10-08 14:32:00,
2013-10-08 10:47:00,84.6,84.0,29.71,WNW,292,2.7,-999.0,98,-99.99,,,0.00,Acu-Link.com,2013-10-08 14:47:00,
2013-10-08 11:02:00,86.7,86.1,29.71,WNW,292,5.3,-999.0,98,-99.99,,,0.00,Acu-Link.com,2013-10-08 15:02:00,
2013-10-08 11:17:00,86.0,85.4,29.72,NW,315,2.2,-999.0,98,-99.99,,,0.00,Acu-Link.com,2013-10-08 15:17:00,
2013-10-08 11:32:00,89.2,88.6,29.71,West,270,4.7,-999.0,98,-99.99,,,0.00,Acu-Link.com,2013-10-08 15:32:00,
2013-10-08 11:48:00,89.6,89.0,29.71,West,270,3.2,-999.0,98,-99.99,,,0.00,Acu-Link.com,2013-10-08 15:48:00,
2013-10-08 12:03:00,87.6,87.0,29.71,NNE,22,4.7,-999.0,98,-99.99,,,0.00,Acu-Link.com,2013-10-08 16:03:00,
2013-10-08 12:18:00,88.0,87.4,29.70,NW,315,3.7,-999.0,98,-99.99,,,0.00,Acu-Link.com,2013-10-08 16:18:00,
2013-10-08 12:33:00,88.9,88.3,29.70,NW,315,6.3,-999.0,98,-99.99,,,0.00,Acu-Link.com,2013-10-08 16:33:00,
2013-10-08 12:48:00,89.8,89.2,29.69,NNE,22,5.3,-999.0,98,-99.99,,,0.00,Acu-Link.com,2013-10-08 16:48:00,
2013-10-08 13:04:00,89.8,89.2,29.69,WNW,292,5.8,-999.0,98,-99.99,,,0.00,Acu-Link.com,2013-10-08 17:04:00,
2013-10-08 13:19:00,89.4,88.8,29.68,NW,315,4.7,-999.0,98,-99.99,,,0.00,Acu-Link.com,2013-10-08 17:19:00,
2013-10-08 13:34:00,90.1,89.5,29.69,NNW,337,6.8,-999.0,98,-99.99,,,0.00,Acu-Link.com,2013-10-08 17:34:00,
2013-10-08 13:49:00,82.8,82.2,29.68,NE,45,3.7,-999.0,98,-99.99,,,0.01,Acu-Link.com,2013-10-08 17:49:00,
2013-10-08 14:04:00,84.0,83.4,29.67,West,270,2.2,-999.0,98,-99.99,,,0.06,Acu-Link.com,2013-10-08 18:04:00,
2013-10-08 14:20:00,87.3,86.7,29.67,WSW,247,2.2,-999.0,98,-99.99,,,0.06,Acu-Link.com,2013-10-08 18:20:00,
2013-10-08 14:35:00,88.3,87.7,29.67,NNW,337,3.7,-999.0,98,-99.99,,,0.06,Acu-Link.com,2013-10-08 18:35:00,
2013-10-08 14:50:00,84.6,84.0,29.66,NW,315,2.7,-999.0,98,-99.99,,,0.06,Acu-Link.com,2013-10-08 18:50:00,
2013-10-08 15:05:00,79.5,78.9,29.68,NE,45,2.2,-999.0,98,-99.99,,,0.06,Acu-Link.com,2013-10-08 19:05:00,
2013-10-08 15:20:00,82.2,81.6,29.67,ENE,67,2.2,-999.0,98,-99.99,,,0.06,Acu-Link.com,2013-10-08 19:20:00,
2013-10-08 15:35:00,81.3,80.7,29.66,NNW,337,2.2,-999.0,98,-99.99,,,0.06,Acu-Link.com,2013-10-08 19:35:00,
2013-10-08 15:50:00,81.5,80.9,29.67,NNW,337,1.7,-999.0,98,-99.99,,,0.06,Acu-Link.com,2013-10-08 19:50:00,
2013-10-08 16:06:00,86.0,85.4,29.67,NNW,337,2.2,-999.0,98,-99.99,,,0.06,Acu-Link.com,2013-10-08 20:06:00,
2013-10-08 16:21:00,88.3,87.7,29.68,South,180,0.0,-999.0,98,-99.99,,,0.06,Acu-Link.com,2013-10-08 20:21:00,
2013-10-08 16:36:00,86.5,85.9,29.68,NNW,337,0.0,-999.0,98,-99.99,,,0.06,Acu-Link.com,2013-10-08 20:36:00,
2013-10-08 16:52:00,84.9,84.3,29.68,NW,315,1.7,-999.0,98,-99.99,,,0.06,Acu-Link.com,2013-10-08 20:52:00,
2013-10-08 17:07:00,84.0,83.4,29.70,NNW,337,4.2,-999.0,98,-99.99,,,0.06,Acu-Link.com,2013-10-08 21:07:00,
2013-10-08 17:22:00,82.8,82.2,29.69,WNW,292,2.2,-999.0,98,-99.99,,,0.06,Acu-Link.com,2013-10-08 21:22:00,
2013-10-08 17:37:00,82.8,82.2,29.68,WNW,292,1.7,-999.0,98,-99.99,,,0.06,Acu-Link.com,2013-10-08 21:37:00,
2013-10-08 17:53:00,83.3,82.7,29.68,North,0,2.7,-999.0,98,-99.99,,,0.06,Acu-Link.com,2013-10-08 21:53:00,
2013-10-08 18:08:00,83.3,82.7,29.68,East,90,0.0,-999.0,98,-99.99,,,0.06,Acu-Link.com,2013-10-08 22:08:00,
2013-10-08 18:23:00,78.8,78.2,29.69,ESE,112,6.8,-999.0,98,-99.99,,,0.07,Acu-Link.com,2013-10-08 22:23:00,
2013-10-08 18:38:00,76.3,75.7,29.70,ESE,112,9.9,-999.0,98,-99.99,,,0.10,Acu-Link.com,2013-10-08 22:38:00,
2013-10-08 18:53:00,75.7,75.1,29.70,SW,225,1.7,-999.0,98,-99.99,,,0.12,Acu-Link.com,2013-10-08 22:53:00,
2013-10-08 19:08:00,76.3,75.7,29.71,ESE,112,4.7,-999.0,98,-99.99,,,0.51,Acu-Link.com,2013-10-08 23:08:00,
2013-10-08 19:24:00,77.2,76.6,29.72,SE,135,7.3,-999.0,98,-99.99,,,0.51,Acu-Link.com,2013-10-08 23:24:00,
2013-10-08 19:39:00,76.8,76.2,29.72,ESE,112,4.2,-999.0,98,-99.99,,,0.51,Acu-Link.com,2013-10-08 23:39:00,
2013-10-08 19:54:00,76.3,75.7,29.73,ESE,112,7.8,-999.0,98,-99.99,,,0.51,Acu-Link.com,2013-10-08 23:54:00,
2013-10-08 20:09:00,75.6,75.0,29.73,ESE,112,8.9,-999.0,98,-99.99,,,0.51,Acu-Link.com,2013-10-09 00:09:00,
2013-10-08 20:25:00,75.4,74.8,29.74,ESE,112,6.8,-999.0,98,-99.99,,,0.51,Acu-Link.com,2013-10-09 00:25:00,
2013-10-08 20:40:00,75.4,74.8,29.75,ESE,112,5.3,-999.0,98,-99.99,,,0.51,Acu-Link.com,2013-10-09 00:40:00,
2013-10-08 20:55:00,75.4,74.8,29.76,ESE,112,4.7,-999.0,98,-99.99,,,0.51,Acu-Link.com,2013-10-09 00:55:00,
2013-10-08 21:10:00,75.4,74.8,29.76,ESE,112,7.8,-999.0,98,-99.99,,,0.51,Acu-Link.com,2013-10-09 01:10:00,
2013-10-08 21:25:00,75.4,74.8,29.76,SE,135,5.3,-999.0,98,-99.99,,,0.51,Acu-Link.com,2013-10-09 01:25:00,
2013-10-08 21:40:00,75.2,74.6,29.76,SE,135,5.8,-999.0,98,-99.99,,,0.51,Acu-Link.com,2013-10-09 01:40:00,
2013-10-08 21:56:00,75.4,74.8,29.76,ESE,112,6.3,-999.0,98,-99.99,,,0.51,Acu-Link.com,2013-10-09 01:56:00,
2013-10-08 22:11:00,75.2,74.6,29.77,ESE,112,8.9,-999.0,98,-99.99,,,0.51,Acu-Link.com,2013-10-09 02:11:00,
2013-10-08 22:26:00,75.2,74.6,29.78,SE,135,6.3,-999.0,98,-99.99,,,0.51,Acu-Link.com,2013-10-09 02:26:00,
2013-10-08 22:41:00,75.0,74.4,29.77,ESE,112,6.8,-999.0,98,-99.99,,,0.51,Acu-Link.com,2013-10-09 02:41:00,
2013-10-08 22:56:00,74.8,74.2,29.77,ESE,112,10.4,-999.0,98,-99.99,,,0.51,Acu-Link.com,2013-10-09 02:56:00,
2013-10-08 23:12:00,74.8,74.2,29.78,ESE,112,8.3,-999.0,98,-99.99,,,0.51,Acu-Link.com,2013-10-09 03:12:00,
2013-10-08 23:27:00,74.8,74.2,29.78,ESE,112,9.4,-999.0,98,-99.99,,,0.51,Acu-Link.com,2013-10-09 03:27:00,
2013-10-08 23:42:00,74.8,74.2,29.78,SE,135,7.3,-999.0,98,-99.99,,,0.51,Acu-Link.com,2013-10-09 03:42:00,
2013-10-08 23:57:00,74.8,74.2,29.78,ESE,112,7.8,-999.0,98,-99.99,,,0.51,Acu-Link.com,2013-10-09 03:57:00,